Home > Weather > Rygge > Past weeks

Flag for Norway Past Weather in Rygge, Norway — Yesterday and Last 2 Weeks

Now
64 °F

Sunny.


Feels Like: 64 °F
Forecast: 58 / 66 °F
Wind: 6 mph from South

Location: Rygge

Current Time: Jul 29, 2016 at 12:24:38 AM

Latest Report: Jul 28, 2016 at 8:00 PM


Visibility: 17 mi

Pressure: 29.82 "Hg

Humidity: 80%

Dew Point: 58 °F

Location of RyggeLocation

Past Weather in Rygge — Graph

°F

Rygge Temperature Yesterday

Maximum temperature yesterday: 68 °F (at 1:00 PM)
Minimum temperature yesterday: 60 °F (at 5:00 AM)
Average temperature yesterday: 64 °F

High & Low Weather Summary for the Past Weeks

 TemperatureHumidityPressure
High78 °F (Jul 21, 1:00 PM)98% (Jul 14, 3:00 AM)30.14 "Hg (Jul 14, 3:00 AM)
Low51 °F (Jul 17, 4:00 AM)47% (Jul 16, 9:00 PM)29.69 "Hg (Jul 13, 8:00 PM)
Average65 °F77%29.97 "Hg
* Reported Jul 13 8:00 PM — Jul 28 8:00 PM, Rygge, Weather by CustomWeather, © 2016

Note: Actual official high and low records may vary slightly from our data, if they occured in-between our weather recording intervals... More about our weather records

Advertising

Rygge Weather History for the Previous 24 Hours

Scroll right to see more
 ConditionsComfort  
Time TempWeatherWind HumidityBarometerVisibility
8:00 PM
Thu, Jul 28
64 °FSunny.6 mph80%29.82 "Hg17 mi
7:00 PM65 °FSunny.7 mph75%29.83 "Hg19 mi
6:00 PM66 °FSunny.9 mph72%29.83 "Hg18 mi
5:00 PM67 °FSunny.9 mph67%29.84 "Hg19 mi
3:00 PM67 °FPassing clouds.8 mph67%29.84 "Hg17 mi
2:00 PM68 °FSunny.9 mph64%29.83 "Hg22 mi
1:00 PM68 °FSunny.8 mph64%29.82 "Hg22 mi
12:00 PM68 °FPassing clouds.6 mph59%29.81 "Hg28 mi
11:00 AM67 °FPassing clouds.5 mph67%29.80 "Hg22 mi
10:00 AM65 °FOvercast.5 mph73%29.79 "Hg25 mi
9:00 AM63 °FPartly sunny.6 mph79%29.77 "Hg22 mi
8:00 AM61 °FOvercast.3 mph87%29.76 "Hg22 mi
7:00 AM60 °FOvercast.3 mph86%29.75 "Hg22 mi
6:00 AM61 °FOvercast.5 mph86%29.75 "Hg19 mi
5:00 AM60 °FOvercast.7 mph87%29.75 "Hg13 mi
4:00 AM61 °FRain showers. Overcast.7 mph94%29.76 "Hg5 mi
3:00 AM61 °FRain showers. Overcast.5 mph92%29.77 "Hg7 mi
2:00 AM61 °FPassing clouds.6 mph94%29.78 "Hg8 mi
1:00 AM61 °FPassing clouds.5 mph95%29.80 "Hg7 mi
12:00 AM61 °FRain showers. Passing clouds.5 mph92%29.81 "Hg13 mi
Weather by CustomWeather, © 2016

See weather overviewHow to use our weather pages